Regional Weather Roundup
Issued by NWS Mobile, AL

Home | Current Version | Previous Version | Text Only | Print | Product List | Glossary On
Versions: 1 2 3 4 5 6 7 8 9 10 11 12 13 14 15 16 17 18 19 20 21 22 23 24 25 26 27 28 29 30 31 32 33 34 35 36 37 38 39 40 41 42 43 44 45 46 47 48 49 50
000
ASUS44 KMOB 261412
RWRMOB
REGIONAL WEATHER ROUNDUP
NATIONAL WEATHER SERVICE MOBILE AL
900 AM CDT SUN APR 26 2015

NOTE: "FAIR" INDICATES FEW OR NO CLOUDS BELOW 12,000 FEET WITH NO
      SIGNIFICANT WEATHER AND/OR OBSTRUCTIONS TO VISIBILITY.

  * THESE STATIONS ARE PART OF THE UNIVERSITY OF SOUTH ALABAMA
    MESONET AND ARE NOT UNDER NWS OR FAA QUALITY CONTROL.

ALZ061>064-261500-
COASTAL ALABAMA

CITY           SKY/WX    TMP DP  RH WIND       PRES   REMARKS
MOBILE REG APT PTSUNNY   72  69  90 W9        29.79R
BROOKLEY FIELD PTSUNNY   74  69  85 VRB5      29.79R
USA CAMPUS*      N/A     75  72  88 SW2       29.79
DOG RIVER*     NOT AVBL


CITY           SKY/WX    TMP DP  RH WIND       PRES   REMARKS
MOUNT VERNON*    N/A     73  66  78 CALM      29.77
SARALAND*      NOT AVBL
BAY MINETTE*   NOT AVBL
LOXLEY*          N/A     73  70  88 W7        29.78
ROBERTSDALE*     N/A     75  72  88 CALM      29.77
FAIRHOPE*        N/A     73  70  88 W5        29.78S
ELBERTA*         N/A     73  72  94 CALM      29.77R
FOLEY*         NOT AVBL
GRAND BAY*       N/A     73  72  94 CALM      29.77S
DAUPHIN ISLND* NOT AVBL
BON SCOUR NWR* NOT AVBL
GULF SHORES    PTSUNNY   75  71  87 W8        29.78R

$$

ALZ051>060-261500-
INTERIOR SOUTHWEST AND SOUTH CENTRAL ALABAMA

CITY           SKY/WX    TMP DP  RH WIND       PRES   REMARKS
GREENVILLE     SUNNY     73  67  81 W7        29.75S
EVERGREEN      SUNNY     72  67  84 VRB5      29.77S
CASTLEBERRY*   NOT AVBL
ATMORE*          N/A     73  70  88 W7        29.79S
DIXIE*         NOT AVBL
ANDALUSIA/OPP  SUNNY     76  66  71 NW7       29.76S
ANDALUSIA*       N/A     70  68  94 NW7       29.77S
FLORALA APT    SUNNY     74  66  76 VRB3      29.78S
FLORALA*         N/A     73  68  83 W6        29.74F

$$

FLZ001>006-261500-
WESTERN FLORIDA PANHANDLE

CITY           SKY/WX    TMP DP  RH WIND       PRES   REMARKS
PENSACOLA      MOSUNNY   74  68  81 W8        29.77S
NAS PENSACOLA  PTSUNNY   74  70  87 W5        29.77S
MILTON         MOSUNNY   74  69  85 W9        29.77S
WHTNG S FIELD  MOSUNNY   76  69  79 NW6       29.78R


CITY           SKY/WX    TMP DP  RH WIND       PRES   REMARKS
WALNUT HILL*   NOT AVBL
JAY*             N/A     73  68  83 W7        29.78S
DUKE FIELD     SUNNY     73  67  83 W6        29.77R
CRESTVIEW      SUNNY     75  68  78 W6        29.79R
VALPARAISO     PTSUNNY   72  67  85 W6        29.78R
DESTIN         CLOUDY    76  67  73 VRB3      29.78R

$$

MSZ076-079-261500-
INTERIOR SOUTHEAST MISSISSIPPI

CITY           SKY/WX    TMP DP  RH WIND       PRES   REMARKS
LEAKESVILLE*     N/A    N/A N/A N/A W3        29.78
AGRICOLA*      NOT AVBL

$$

MARINE OBSERVATIONS

STATION/POSITION TIME  TEMP    WIND        PRES    WAVE
                       AIR SEA DIR/SP/G            HT/PER
                 (UTC) (F)     (DEG/KT/KT) (MB)    (FT/S)
PASCAGOULA       1300   71     270/  4/  5 1008.3R
PETIT BOIS ISLND 1300   73     280/  2/  3 1008.8R
GRAND BAY        1200   68     290/  2     1009.0R
KATRINA CUT      1300   73     300/  5     1009.5R
CEDAR POINT      1300   72     290/  6     1008.5R
E DAUPHIN ISLAND 1300   73     290/  4/  4 1008.0R
MIDDLE BAY LIGHT 1300   71     240/  5     1008.1R
USCG MOBILE BAY  1300   72 74  280/  4/  6 1007.1R
STATE DOCKS      1300   74 70              1007.9R
MEAHER PARK      1300   72     150/  1     1008.1S
WEEKS BAY        1200   66                   N/A
FORT MORGAN      1300   73     300/  2/  3 1007.9R
12 S ORANGE BCH  1350   74 74  280/  2/  4 1007.6R   3/ 8
PENSACOLA BAY    1300   74 75  290/  2/  6 1008.2S
64 S DAUPHIN ISL 1350   77 77  270/ 10/ 10 1008.7R   4/ 7
67 S FORT MORGAN 1330   77                 1008.5S

$$

SELECTED LOCATIONS ACROSS THE REGION

CITY           SKY/WX    TMP DP  RH WIND       PRES   REMARKS
NEW ORLEANS    CLOUDY    73  71  93 SW3       29.77S FOG
GULFPORT       CLOUDY    71  70  96 CALM      29.77S FOG
PASCAGOULA AP  SUNNY     73  71  93 W5        29.78S
PASCAGOULA*    NOT AVBL
HATTIESBURG    SUNNY     76  67  73 W5        29.78R
LAUREL         SUNNY     72  63  73 CALM      29.78S
MERIDIAN       MOSUNNY   71  66  84 W7        29.76S
JACKSON        SUNNY     74  67  78 NW7       29.76S
MONTGOMERY     CLOUDY    70  65  84 W8        29.75S
TROY           MOSUNNY   71  67  87 W7        29.76S
KINSTON*       NOT AVBL
GENEVA*          N/A     72  66  83 NW5       29.79S
ASHFORD*         N/A     70  68  94 NW7       29.77S
DOTHAN         MOSUNNY   71  66  84 W10       29.80R
PANAMA CITY    PTSUNNY   75  69  81 SW8       29.78R

$$



USA.gov is the U.S. government's official web portal to all federal, state and local government web resources and services.